Torna al catalogo

STARLINK-4026

AttivoComunicazioniVLEO
NORAD 52600·PAYLOAD·🇺🇸 United States

Lanciato May 14, 2022 da Cape Canaveral Space Force Station

Loading…

Prossimi Passaggi (prossime 24 ore)

TLE

AggiornatoSource: CelesTrak SupGP

Epoca: Sep 14, 2026, 14:13 UTC

1 52600C 22052C   26257.59284722  .00028965  00000+0  93154-3 0  2576
2 52600  53.1567 139.2887 0001489  93.6746 344.9400 15.31683866    19

Traccia STARLINK-4026 in tempo reale con AllMySat

Download on the App Store